Time,TemperatureF,DewpointF,PressureIn,WindDirection,WindDirectionDegrees,WindSpeedMPH,WindSpeedGustMPH,Humidity,HourlyPrecipIn,Conditions,Clouds,dailyrainin,SoftwareType,DateUTC
2015-01-30 00:02:00,38.1,29.5,29.89,ESE,120,3.0,7.0,71,0.00,,---,0.00,VWS V14.00,2015-01-30 07:02:00,
2015-01-30 00:08:00,38.3,29.7,29.89,SE,127,4.0,6.0,71,0.00,,---,0.00,VWS V14.00,2015-01-30 07:08:00,
2015-01-30 00:14:00,38.4,29.8,29.89,SE,130,4.0,5.0,71,0.00,,---,0.00,VWS V14.00,2015-01-30 07:14:00,
2015-01-30 00:20:00,38.4,29.8,29.89,ESE,115,2.0,6.0,71,0.00,,---,0.00,VWS V14.00,2015-01-30 07:20:00,
2015-01-30 00:25:00,38.3,29.7,29.89,ESE,111,4.0,5.0,71,0.00,,---,0.00,VWS V14.00,2015-01-30 07:25:00,
2015-01-30 00:30:00,38.3,29.7,29.89,ESE,106,4.0,5.0,71,0.00,,---,0.00,VWS V14.00,2015-01-30 07:30:00,
2015-01-30 00:35:00,38.4,29.5,29.89,ESE,103,3.0,6.0,70,0.00,,---,0.00,VWS V14.00,2015-01-30 07:35:00,
2015-01-30 00:40:00,38.6,29.7,29.89,ESE,104,2.0,4.0,70,0.00,,---,0.00,VWS V14.00,2015-01-30 07:40:00,
2015-01-30 00:47:00,38.9,29.6,29.89,SE,140,4.0,5.0,69,0.00,,---,0.00,VWS V14.00,2015-01-30 07:47:00,
2015-01-30 00:53:00,39.2,29.5,29.89,SE,136,6.0,9.0,68,0.00,,---,0.00,VWS V14.00,2015-01-30 07:53:00,
2015-01-30 00:59:00,39.4,29.7,29.89,East,101,4.0,7.0,68,0.00,,---,0.00,VWS V14.00,2015-01-30 07:59:00,
2015-01-30 01:05:00,39.3,29.6,29.89,East,98,6.0,7.0,68,0.00,,---,0.00,VWS V14.00,2015-01-30 08:05:00,
2015-01-30 01:10:00,39.3,29.6,29.89,ESE,104,9.0,10.0,68,0.00,,---,0.00,VWS V14.00,2015-01-30 08:10:00,
2015-01-30 01:15:00,39.6,29.9,29.89,ESE,115,7.0,10.0,68,0.00,,---,0.00,VWS V14.00,2015-01-30 08:15:00,
2015-01-30 01:20:00,39.7,29.7,29.89,East,101,5.0,7.0,67,0.00,,---,0.00,VWS V14.00,2015-01-30 08:20:00,
2015-01-30 01:25:00,39.9,29.9,29.89,ESE,104,5.0,7.0,67,0.00,,---,0.00,VWS V14.00,2015-01-30 08:25:00,
2015-01-30 01:31:00,40.2,29.8,29.89,East,101,5.0,8.0,66,0.00,,---,0.00,VWS V14.00,2015-01-30 08:31:00,
2015-01-30 01:37:00,40.2,29.8,29.89,ESE,105,5.0,6.0,66,0.00,,---,0.00,VWS V14.00,2015-01-30 08:37:00,
2015-01-30 01:43:00,39.8,29.8,29.89,ESE,111,1.0,3.0,67,0.00,,---,0.00,VWS V14.00,2015-01-30 08:43:00,
2015-01-30 01:49:00,39.3,30.0,29.89,SE,128,1.0,4.0,69,0.00,,---,0.00,VWS V14.00,2015-01-30 08:49:00,
2015-01-30 01:55:00,39.1,30.2,29.89,SSE,154,5.0,6.0,70,0.00,,---,0.00,VWS V14.00,2015-01-30 08:55:00,
2015-01-30 02:00:00,39.8,30.5,29.89,SSE,161,6.0,8.0,69,0.00,,---,0.00,VWS V14.00,2015-01-30 09:00:00,
2015-01-30 02:06:00,40.7,30.2,29.89,SSE,155,6.0,11.0,66,0.00,,---,0.00,VWS V14.00,2015-01-30 09:06:00,
2015-01-30 02:12:00,40.8,30.0,29.89,SSE,157,5.0,9.0,65,0.00,,---,0.00,VWS V14.00,2015-01-30 09:12:00,
2015-01-30 02:18:00,40.1,29.7,29.89,SE,144,5.0,7.0,66,0.00,,---,0.00,VWS V14.00,2015-01-30 09:18:00,
2015-01-30 02:24:00,39.8,29.8,29.89,SSE,159,4.0,7.0,67,0.00,,---,0.00,VWS V14.00,2015-01-30 09:24:00,
2015-01-30 02:30:00,39.3,29.3,29.89,SSE,150,5.0,5.0,67,0.00,,---,0.00,VWS V14.00,2015-01-30 09:30:00,
2015-01-30 02:35:00,39.3,29.3,29.89,SE,146,3.0,7.0,67,0.00,,---,0.00,VWS V14.00,2015-01-30 09:35:00,
2015-01-30 02:40:00,38.9,29.2,29.89,SSE,161,3.0,5.0,68,0.00,,---,0.00,VWS V14.00,2015-01-30 09:40:00,